Date String (YYYY-MM-DD hh:mm:ss) UTC,Instrument flags,Ambient pressure (hPa),Sample flow (lpm),Bypass flow (lpm),Sample temperature (°C),Ambient temperature (°C),ASC tube jacket temperature (°C),LED temperature (°C),Box temperature (°C),Sample RH (%),Span deviation,Mass concentration (μg/m³),Mass concentration (μg/m³),Mass concentration (μg/m³)
DateTimeUTC,F1_M11,P_M11,Q1_M11,Q2_M11,T1_M11,T2_M11,T3_M11,T4_M11,T5_M11,U1_M11,ZSPAN_M11,X0_M11,X2_M11,X1_M11
2023-04-25 19:00:00,,0823.9,5.00,0.00,27.1,25.6,00.0,35.5,28.7,18.9,0000.1,0011.11,0006.67,0005.85
2023-04-25 19:01:00,,0824.0,5.00,0.00,27.1,25.7,00.0,35.5,28.7,18.9,0000.0,0011.59,0006.74,0005.92
2023-04-25 19:02:00,,0824.0,5.01,0.00,27.1,25.7,00.0,35.5,28.7,18.6,0000.3,0011.61,0006.82,0006.00
2023-04-25 19:03:00,,0824.0,4.99,0.00,27.1,25.7,00.0,35.5,28.7,18.6,0000.7,0011.50,0006.83,0006.06
2023-04-25 19:04:00,,0824.0,4.99,0.00,27.1,25.7,00.0,35.5,28.7,18.8,0000.5,0011.65,0006.91,0006.13
2023-04-25 19:05:00,,0823.9,5.00,0.00,27.1,25.7,00.0,35.5,28.7,18.8,0000.7,0011.79,0007.02,0006.22
2023-04-25 19:06:00,,0823.9,5.00,0.00,27.1,25.7,00.0,35.5,28.7,18.4,0000.9,0012.07,0007.15,0006.33
2023-04-25 19:07:00,,0824.0,5.00,0.00,27.1,25.7,00.0,35.5,28.7,18.2,0001.0,0012.24,0007.28,0006.42
2023-04-25 19:08:00,,0824.0,5.01,0.00,27.1,25.7,00.0,35.5,28.7,18.3,0001.0,0012.31,0007.39,0006.52
2023-04-25 19:09:00,,0824.0,5.01,0.00,27.1,25.7,00.0,35.5,28.7,18.2,0001.2,0012.41,0007.50,0006.64
2023-04-25 19:10:00,,0824.0,5.00,0.00,27.1,25.7,00.0,35.5,28.7,18.9,0001.3,0012.48,0007.60,0006.75
2023-04-25 19:11:00,,0824.0,4.98,0.00,27.1,25.7,00.0,35.5,28.7,19.1,0001.6,0012.37,0007.62,0006.77
2023-04-25 19:12:00,,0824.0,5.00,0.00,27.1,25.7,00.0,35.5,28.7,18.9,0001.6,0012.11,0007.62,0006.79
2023-04-25 19:13:00,,0823.9,5.01,0.00,27.1,25.7,00.0,35.5,28.8,18.5,0001.6,0012.10,0007.57,0006.77
2023-04-25 19:14:00,,0824.0,5.01,0.00,27.1,25.7,00.0,35.5,28.7,18.4,0001.7,0013.95,0007.63,0006.77
2023-04-25 19:15:00,,0824.0,4.98,0.00,27.2,25.7,00.0,35.5,28.7,18.7,0002.0,0014.40,0007.61,0006.76
2023-04-25 19:16:00,,0823.9,5.01,0.00,27.2,25.7,00.0,35.5,28.7,18.3,0002.0,0014.36,0007.56,0006.73
2023-04-25 19:17:00,,0823.8,5.02,0.00,27.2,25.7,00.0,35.5,28.7,18.3,0001.8,0014.15,0007.54,0006.72
2023-04-25 19:18:00,,0823.8,4.99,0.00,27.2,25.7,00.0,35.5,28.7,18.7,0001.7,0014.38,0007.54,0006.74
2023-04-25 19:19:00,,0823.9,5.00,0.00,27.2,25.8,00.0,35.5,28.7,19.3,0001.4,0014.55,0007.58,0006.79
2023-04-25 19:20:00,,0823.9,5.00,0.00,27.2,25.8,00.0,35.5,28.8,18.7,0001.4,0014.55,0007.61,0006.80
2023-04-25 19:21:00,,0823.9,5.01,0.00,27.2,25.7,00.0,35.5,28.7,18.4,0001.6,0014.52,0007.59,0006.78
2023-04-25 19:22:00,,0824.0,5.00,0.00,27.2,25.7,00.0,35.5,28.7,18.4,0001.5,0014.15,0007.56,0006.75
2023-04-25 19:23:00,,0824.0,4.99,0.00,27.2,25.7,00.0,35.5,28.7,18.2,0002.1,0014.11,0007.53,0006.72
2023-04-25 19:24:00,,0824.0,5.01,0.00,27.1,25.7,00.0,35.5,28.7,18.3,0002.2,0014.16,0007.49,0006.66
2023-04-25 19:25:00,,0824.0,5.00,0.00,27.2,25.7,00.0,35.6,28.7,18.2,0001.9,0012.71,0007.43,0006.62
2023-04-25 19:26:00,,0824.0,5.01,0.00,27.2,25.7,00.0,35.6,28.8,17.9,0001.6,0011.93,0007.44,0006.63
2023-04-25 19:27:00,,0824.0,5.01,0.00,27.2,25.7,00.0,35.6,28.8,18.1,0001.6,0012.04,0007.49,0006.65
2023-04-25 19:28:00,,0824.0,4.99,0.00,27.2,25.7,00.0,35.6,28.8,17.8,0001.9,0012.36,0007.46,0006.63
2023-04-25 19:29:00,,0823.9,5.01,0.00,27.2,25.8,00.0,35.6,28.8,18.3,0002.0,0012.89,0007.41,0006.62
2023-04-25 19:30:00,,0823.9,5.01,0.00,27.2,25.8,00.0,35.6,28.8,18.6,0002.5,0012.73,0007.37,0006.58
2023-04-25 19:31:00,,0824.0,4.99,0.00,27.2,25.7,00.0,35.6,28.8,19.0,0002.8,0013.06,0007.39,0006.57
2023-04-25 19:32:00,,0824.0,5.01,0.00,27.2,25.8,00.0,35.6,28.8,18.9,0002.4,0013.26,0007.43,0006.60
2023-04-25 19:33:00,,0823.9,5.01,0.00,27.2,25.8,00.0,35.6,28.8,18.8,0002.1,0013.22,0007.44,0006.61
2023-04-25 19:34:00,,0824.0,4.99,0.00,27.2,25.8,00.0,35.6,28.8,18.5,0001.5,0013.14,0007.39,0006.58
2023-04-25 19:35:00,,0824.0,4.99,0.00,27.2,25.8,00.0,35.6,28.8,18.4,0001.4,0012.87,0007.35,0006.57
2023-04-25 19:36:00,,0823.9,5.01,0.00,27.2,25.9,00.0,35.6,28.8,17.9,0001.4,0012.69,0007.35,0006.58
2023-04-25 19:37:00,,0823.9,5.01,0.00,27.2,25.9,00.0,35.6,28.8,17.6,0001.4,0012.73,0007.31,0006.57
2023-04-25 19:38:00,,0823.9,4.99,0.00,27.2,25.9,00.0,35.6,28.8,17.5,0001.6,0012.78,0007.26,0006.54
2023-04-25 19:39:00,,0824.0,5.01,0.00,27.3,25.9,00.0,35.6,28.8,18.3,0001.4,0012.69,0007.28,0006.56
2023-04-25 19:40:00,,0824.0,5.01,0.00,27.2,25.9,00.0,35.6,28.8,18.6,0001.1,0011.96,0007.39,0006.62
2023-04-25 19:41:00,,0824.0,4.99,0.00,27.2,25.9,00.0,35.6,28.8,18.6,0000.9,0012.16,0007.47,0006.67
2023-04-25 19:42:00,,0823.9,4.99,0.00,27.2,25.9,00.0,35.6,28.8,18.3,0000.5,0011.88,0007.45,0006.69
2023-04-25 19:43:00,,0824.0,5.01,0.00,27.2,25.9,00.0,35.6,28.8,18.2,0000.4,0011.77,0007.45,0006.68
2023-04-25 19:44:00,,0824.0,5.01,0.00,27.2,25.8,00.0,35.6,28.8,18.4,0000.5,0011.70,0007.46,0006.69
2023-04-25 19:45:00,,0824.0,4.98,0.00,27.2,25.8,00.0,35.6,28.9,18.3,0000.7,0011.78,0007.48,0006.70
2023-04-25 19:46:00,,0823.9,5.00,0.00,27.2,25.8,00.0,35.6,28.8,17.9,0000.6,0011.99,0007.56,0006.73
2023-04-25 19:47:00,,0824.0,5.00,0.00,27.3,25.8,00.0,35.6,28.9,17.8,0000.7,0012.05,0007.60,0006.74
2023-04-25 19:48:00,,0823.9,5.01,0.00,27.2,25.8,00.0,35.6,28.9,17.7,0001.0,0011.99,0007.62,0006.73
2023-04-25 19:49:00,,0823.9,4.99,0.00,27.2,25.8,00.0,35.6,28.8,17.6,0001.2,0011.79,0007.62,0006.71
2023-04-25 19:50:00,,0824.0,4.99,0.00,27.3,25.8,00.0,35.6,28.8,17.7,0001.4,0011.69,0007.56,0006.68
2023-04-25 19:51:00,,0823.9,5.00,0.00,27.3,25.8,00.0,35.7,28.9,17.7,0001.7,0011.60,0007.51,0006.61
2023-04-25 19:52:00,,0824.0,5.00,0.00,27.3,25.8,00.0,35.7,28.8,17.5,0001.9,0011.21,0007.47,0006.56
2023-04-25 19:53:00,,0823.9,5.01,0.00,27.3,25.9,00.0,35.7,28.8,17.5,0002.0,0011.10,0007.40,0006.52
2023-04-25 19:54:00,,0824.0,4.99,0.00,27.3,25.9,00.0,35.7,28.9,17.6,0002.0,0011.13,0007.36,0006.48
2023-04-25 19:55:00,,0824.0,4.99,0.00,27.3,25.9,00.0,35.7,28.9,17.5,0002.1,0011.33,0007.34,0006.46
2023-04-25 19:56:00,,0824.0,5.00,0.00,27.3,25.9,00.0,35.7,28.9,17.7,0002.1,0012.06,0007.38,0006.46
2023-04-25 19:57:00,,0824.0,5.01,0.00,27.3,25.9,00.0,35.7,28.9,18.0,0001.9,0011.98,0007.36,0006.49
2023-04-25 19:58:00,,0824.0,5.00,0.00,27.3,25.9,00.0,35.7,28.9,18.1,0001.9,0012.04,0007.38,0006.50
2023-04-25 19:59:00,,0824.0,4.99,0.00,27.3,25.9,00.0,35.7,28.9,19.2,0001.8,0012.18,0007.47,0006.60
